QPF
0.00 0.00 0.00 0.00 0.00 0.00 0.00 0.00 0.00 0.00 0.00 0.00 0.00 0.00 0.00 0.00 0.00 0.00 0.00 0.00 0.00 0.00 0.00 0.00 0.00 0.00 0.00 0.00 0.00 0.00 0.00 0.00 0.00 0.01 0.01 0.01 0.01 0.01 0.01 0.01 0.01 0.01 0.01 0.01 0.01 0.01 0.01 0.01 0.01
0.00 0.00 0.00 0.00 0.00 0.00 0.00 0.00 0.00 0.00 0.00 0.00 0.00 0.00 0.00 0.00 0.00 0.00 0.00 0.00 0.00 0.00 0.00 0.00 0.00 0.00 0.00 0.00 0.00 0.00 0.00 0.00 0.00 0.00 0.00 0.00 0.00 0.00 0.00 0.00 0.00 0.01 0.01 0.01 0.01 0.01 0.01 0.00 0.00
0.00 0.00 0.00 0.00 0.00 0.00 0.00 0.00 0.00 0.00 0.00 0.00 0.00 0.00 0.00 0.00 0.00 0.00 0.00 0.00 0.00 0.00 0.00 0.00 0.00 0.00 0.00 0.00 0.00 0.00 0.00 0.00 0.00 0.00 0.00 0.00 0.00 0.00 0.00 0.00 0.00 0.01 0.01 0.01 0.01 0.01 0.01 0.01 0.00
0.00 0.00 0.00 0.00 0.00 0.00 0.00 0.00 0.00 0.00 0.00 0.00 0.00 0.00 0.00 0.00 0.00 0.00 0.00 0.00 0.00 0.00 0.00 0.00 0.00 0.00 0.00 0.00 0.00 0.00 0.00 0.00 0.00 0.00 0.00 0.00 0.00 0.00 0.00 0.00 0.00 0.00 0.00 0.01 0.01 0.01 0.01 0.01 0.00
0.00 0.00 0.00 0.00 0.00 0.00 0.00 0.00 0.00 0.00 0.00 0.00 0.00 0.00 0.00 0.00 0.00 0.00 0.00 0.00 0.00 0.00 0.00 0.00 0.00 0.00 0.00 0.00 0.00 0.00 0.00 0.00 0.00 0.00 0.00 0.00 0.00 0.00 0.00 0.00 0.00 0.00 0.00 0.00 0.00 0.00 0.00 0.00 0.00
0.00 0.00 0.00 0.00 0.00 0.00 0.00 0.00 0.00 0.00 0.00 0.00 0.00 0.00 0.00 0.00 0.00 0.00 0.00 0.00 0.00 0.00 0.00 0.00 0.00 0.00 0.00 0.00 0.00 0.00 0.00 0.00 0.00 0.00 0.00 0.00 0.00 0.00 0.00 0.00 0.00 0.00 0.00 0.00 0.00 0.00 0.00 0.00 0.00
0.00 0.00 0.00 0.00 0.00 0.00 0.00 0.00 0.00 0.00 0.00 0.00 0.00 0.00 0.00 0.00 0.00 0.00 0.00 0.00 0.00 0.00 0.00 0.00 0.00 0.00 0.00 0.00 0.00 0.00 0.00 0.00 0.00 0.00 0.00 0.00 0.00 0.00 0.00 0.00 0.00 0.00 0.00 0.00 0.00 0.00 0.00 0.00 0.00
0.00 0.00 0.00 0.00 0.00 0.00 0.00 0.00 0.00 0.00 0.00 0.00 0.00 0.00 0.00 0.00 0.00 0.00 0.00 0.00 0.00 0.00 0.00 0.00 0.00 0.00 0.00 0.00 0.00 0.00 0.00 0.00 0.00 0.00 0.00 0.00 0.00 0.00 0.00 0.00 0.00 0.00 0.00 0.00 0.00 0.00 0.00 0.00 0.00
0.00 0.00 0.00 0.00 0.00 0.00 0.00 0.00 0.00 0.00 0.00 0.00 0.00 0.00 0.00 0.00 0.00 0.00 0.00 0.00 0.00 0.00 0.00 0.00 0.00 0.00 0.00 0.00 0.00 0.00 0.00 0.00 0.00 0.00 0.00 0.00 0.00 0.00 0.00 0.00 0.00 0.00 0.00 0.00 0.00 0.00 0.00 0.00 0.00
0.00 0.00 0.00 0.00 0.00 0.00 0.00 0.00 0.00 0.00 0.00 0.00 0.00 0.00 0.00 0.00 0.00 0.00 0.00 0.00 0.00 0.00 0.00 0.00 0.00 0.00 0.00 0.00 0.00 0.00 0.00 0.00 0.00 0.00 0.00 0.00 0.00 0.00 0.00 0.00 0.00 0.00 0.00 0.00 0.00 0.00 0.00 0.00 0.00
0.00 0.00 0.00 0.00 0.00 0.00 0.00 0.00 0.00 0.00 0.00 0.00 0.00 0.00 0.00 0.00 0.00 0.00 0.00 0.00 0.00 0.00 0.00 0.00 0.00 0.00 0.00 0.00 0.00 0.00 0.00 0.00 0.00 0.00 0.00 0.00 0.00 0.00 0.00 0.00 0.00 0.00 0.00 0.00 0.00 0.00 0.00 0.00 0.00
0.00 0.00 0.00 0.00 0.00 0.00 0.00 0.00 0.00 0.00 0.00 0.00 0.00 0.00 0.00 0.00 0.00 0.00 0.00 0.00 0.00 0.00 0.00 0.00 0.00 0.00 0.00 0.00 0.00 0.00 0.00 0.00 0.00 0.00 0.00 0.00 0.00 0.00 0.00 0.00 0.00 0.00 0.00 0.00 0.00 0.00 0.00 0.00 0.00
0.00 0.00 0.00 0.00 0.00 0.00 0.00 0.00 0.00 0.00 0.00 0.00 0.00 0.00 0.00 0.00 0.00 0.00 0.00 0.00 0.00 0.00 0.00 0.00 0.00 0.00 0.00 0.00 0.00 0.00 0.00 0.00 0.00 0.00 0.00 0.00 0.00 0.00 0.00 0.00 0.00 0.00 0.00 0.00 0.00 0.00 0.00 0.00 0.00
0.00 0.00 0.00 0.00 0.00 0.00 0.00 0.00 0.00 0.00 0.00 0.00 0.00 0.00 0.00 0.00 0.00 0.00 0.00 0.00 0.00 0.00 0.00 0.00 0.00 0.00 0.00 0.00 0.00 0.00 0.00 0.00 0.00 0.00 0.00 0.00 0.00 0.00 0.00 0.00 0.00 0.00 0.00 0.00 0.00 0.00 0.00 0.00 0.00
0.00 0.00 0.00 0.00 0.00 0.00 0.00 0.00 0.00 0.00 0.00 0.00 0.00 0.00 0.00 0.00 0.00 0.00 0.00 0.00 0.00 0.00 0.00 0.00 0.00 0.00 0.00 0.00 0.00 0.00 0.00 0.00 0.00 0.00 0.00 0.00 0.00 0.00 0.00 0.00 0.00 0.00 0.00 0.00 0.00 0.00 0.00 0.00 0.00
0.00 0.00 0.00 0.00 0.00 0.00 0.00 0.00 0.00 0.00 0.00 0.00 0.00 0.00 0.00 0.00 0.00 0.00 0.00 0.00 0.00 0.00 0.00 0.00 0.00 0.00 0.00 0.00 0.00 0.00 0.00 0.00 0.00 0.00 0.00 0.00 0.00 0.00 0.00 0.00 0.00 0.00 0.00 0.00 0.00 0.00 0.00 0.00 0.00
0.00 0.00 0.00 0.00 0.00 0.00 0.00 0.00 0.00 0.00 0.00 0.00 0.00 0.00 0.00 0.00 0.00 0.00 0.00 0.00 0.00 0.00 0.00 0.00 0.00 0.00 0.00 0.00 0.00 0.00 0.00 0.00 0.00 0.00 0.00 0.00 0.00 0.00 0.00 0.00 0.00 0.00 0.00 0.00 0.00 0.00 0.00 0.00 0.00
0.00 0.00 0.00 0.00 0.00 0.00 0.00 0.00 0.00 0.00 0.00 0.00 0.00 0.00 0.00 0.00 0.00 0.00 0.00 0.00 0.00 0.00 0.00 0.00 0.00 0.00 0.00 0.00 0.00 0.00 0.00 0.00 0.00 0.00 0.00 0.00 0.00 0.00 0.00 0.00 0.00 0.00 0.00 0.00 0.00 0.00 0.00 0.00 0.00
0.00 0.00 0.00 0.00 0.00 0.00 0.00 0.00 0.00 0.00 0.00 0.00 0.00 0.00 0.00 0.00 0.00 0.00 0.00 0.00 0.00 0.00 0.00 0.00 0.00 0.00 0.00 0.00 0.00 0.00 0.00 0.00 0.00 0.00 0.00 0.00 0.00 0.00 0.00 0.00 0.00 0.00 0.00 0.00 0.00 0.00 0.00 0.00 0.00
0.00 0.00 0.00 0.00 0.00 0.00 0.00 0.00 0.00 0.00 0.00 0.00 0.00 0.00 0.00 0.00 0.00 0.00 0.00 0.00 0.00 0.00 0.00 0.00 0.00 0.00 0.00 0.00 0.00 0.00 0.00 0.00 0.00 0.00 0.00 0.00 0.00 0.00 0.00 0.00 0.00 0.00 0.00 0.00 0.00 0.00 0.00 0.00 0.00
0.00 0.00 0.00 0.00 0.00 0.00 0.00 0.00 0.00 0.00 0.00 0.00 0.00 0.00 0.00 0.00 0.00 0.00 0.00 0.00 0.00 0.00 0.00 0.00 0.00 0.00 0.00 0.00 0.00 0.00 0.00 0.00 0.00 0.00 0.00 0.00 0.00 0.00 0.00 0.00 0.00 0.00 0.00 0.00 0.00 0.00 0.00 0.00 0.00
0.00 0.00 0.00 0.00 0.00 0.00 0.00 0.00 0.00 0.00 0.00 0.00 0.00 0.00 0.00 0.00 0.00 0.00 0.00 0.00 0.00 0.00 0.00 0.00 0.00 0.00 0.00 0.00 0.00 0.00 0.00 0.00 0.00 0.00 0.00 0.00 0.00 0.00 0.00 0.00 0.00 0.00 0.00 0.00 0.00 0.00 0.00 0.01 0.01
0.00 0.00 0.00 0.00 0.00 0.00 0.00 0.00 0.00 0.00 0.00 0.00 0.00 0.00 0.00 0.00 0.00 0.00 0.00 0.00 0.00 0.00 0.00 0.00 0.00 0.00 0.00 0.00 0.00 0.00 0.00 0.00 0.00 0.00 0.00 0.00 0.00 0.00 0.00 0.00 0.00 0.00 0.00 0.00 0.00 0.00 0.01 0.01 0.02
0.00 0.00 0.00 0.00 0.00 0.00 0.00 0.00 0.00 0.00 0.00 0.00 0.00 0.00 0.00 0.00 0.00 0.00 0.00 0.00 0.00 0.00 0.00 0.00 0.00 0.00 0.00 0.00 0.00 0.00 0.00 0.00 0.00 0.00 0.00 0.00 0.00 0.00 0.00 0.00 0.00 0.00 0.00 0.00 0.00 0.01 0.01 0.01 0.02
0.00 0.00 0.00 0.00 0.00 0.00 0.00 0.00 0.00 0.00 0.00 0.00 0.00 0.00 0.00 0.00 0.00 0.00 0.00 0.00 0.00 0.00 0.00 0.00 0.00 0.00 0.00 0.00 0.00 0.00 0.00 0.00 0.00 0.00 0.00 0.00 0.00 0.00 0.00 0.00 0.00 0.00 0.00 0.00 0.00 0.01 0.01 0.02 0.02
0.00 0.00 0.00 0.00 0.00 0.00 0.00 0.00 0.00 0.00 0.00 0.00 0.00 0.00 0.00 0.00 0.00 0.00 0.00 0.00 0.00 0.00 0.00 0.00 0.00 0.00 0.00 0.00 0.00 0.00 0.00 0.00 0.00 0.00 0.00 0.00 0.00 0.00 0.00 0.00 0.00 0.00 0.00 0.00 0.00 0.01 0.01 0.02 0.02
0.00 0.00 0.00 0.00 0.00 0.00 0.00 0.00 0.00 0.00 0.00 0.00 0.00 0.00 0.00 0.00 0.00 0.00 0.00 0.00 0.00 0.00 0.00 0.00 0.00 0.00 0.00 0.00 0.00 0.00 0.00 0.00 0.00 0.00 0.00 0.00 0.00 0.00 0.00 0.00 0.00 0.00 0.00 0.00 0.00 0.01 0.01 0.01 0.02
0.00 0.00 0.00 0.00 0.00 0.00 0.00 0.00 0.00 0.00 0.00 0.00 0.00 0.00 0.00 0.00 0.00 0.00 0.00 0.00 0.00 0.00 0.00 0.00 0.00 0.00 0.00 0.00 0.00 0.00 0.00 0.00 0.00 0.00 0.00 0.00 0.00 0.00 0.00 0.00 0.00 0.00 0.00 0.00 0.00 0.01 0.00 0.00 0.01
0.00 0.00 0.00 0.00 0.00 0.00 0.00 0.00 0.00 0.00 0.00 0.00 0.00 0.00 0.00 0.00 0.00 0.00 0.00 0.00 0.00 0.00 0.00 0.00 0.00 0.00 0.00 0.00 0.00 0.00 0.00 0.00 0.00 0.00 0.00 0.00 0.00 0.00 0.00 0.00 0.00 0.00 0.00 0.00 0.00 0.01 0.00 0.00 0.00
0.00 0.00 0.00 0.00 0.00 0.00 0.00 0.00 0.00 0.00 0.00 0.00 0.00 0.00 0.00 0.00 0.00 0.00 0.00 0.00 0.00 0.00 0.00 0.00 0.00 0.00 0.00 0.00 0.00 0.00 0.00 0.00 0.00 0.00 0.00 0.00 0.00 0.00 0.00 0.00 0.00 0.00 0.00 0.00 0.00 0.00 0.00 0.00 0.00
MSLP
1013.58 1014.18 1015.19 1016.54 1018.11 1019.73 1021.23 1022.47 1023.39 1023.97 1024.29 1024.50 1024.72 1025.10 1025.69 1026.51 1027.50 1028.55 1029.52 1030.29 1030.80 1031.03 1031.01 1030.82 1030.54 1030.27 1030.04 1029.88 1029.76 1029.65 1029.50 1029.30 1029.03 1028.73 1028.43 1028.15 1027.94 1027.78 1027.65 1027.52 1027.36 1027.12 1026.80 1026.41 1025.97 1025.51 1025.08 1024.68 1024.32
1014.01 1014.77 1015.92 1017.37 1018.97 1020.56 1022.00 1023.15 1023.97 1024.46 1024.74 1024.94 1025.18 1025.59 1026.23 1027.08 1028.07 1029.08 1030.00 1030.71 1031.15 1031.32 1031.26 1031.04 1030.76 1030.49 1030.28 1030.12 1030.01 1029.90 1029.76 1029.57 1029.33 1029.05 1028.78 1028.53 1028.32 1028.15 1028.00 1027.84 1027.63 1027.35 1027.00 1026.59 1026.15 1025.71 1025.29 1024.90 1024.55
1014.54 1015.44 1016.68 1018.16 1019.73 1021.25 1022.56 1023.59 1024.31 1024.74 1025.01 1025.24 1025.55 1026.05 1026.75 1027.64 1028.64 1029.62 1030.47 1031.11 1031.47 1031.59 1031.49 1031.26 1030.99 1030.73 1030.53 1030.39 1030.29 1030.18 1030.04 1029.85 1029.61 1029.34 1029.06 1028.81 1028.58 1028.38 1028.18 1027.97 1027.71 1027.40 1027.02 1026.61 1026.18 1025.76 1025.37 1025.02 1024.69
1015.13 1016.13 1017.42 1018.87 1020.36 1021.75 1022.92 1023.81 1024.43 1024.82 1025.11 1025.40 1025.81 1026.40 1027.18 1028.11 1029.11 1030.04 1030.82 1031.38 1031.68 1031.74 1031.63 1031.42 1031.17 1030.96 1030.80 1030.68 1030.59 1030.48 1030.33 1030.13 1029.87 1029.58 1029.28 1029.00 1028.73 1028.48 1028.24 1027.97 1027.67 1027.32 1026.94 1026.53 1026.12 1025.74 1025.39 1025.08 1024.78
1015.73 1016.80 1018.09 1019.48 1020.85 1022.08 1023.09 1023.84 1024.37 1024.74 1025.06 1025.43 1025.94 1026.63 1027.47 1028.43 1029.40 1030.27 1030.97 1031.45 1031.70 1031.74 1031.65 1031.48 1031.30 1031.16 1031.06 1030.98 1030.91 1030.80 1030.63 1030.40 1030.11 1029.79 1029.46 1029.14 1028.83 1028.54 1028.25 1027.94 1027.61 1027.24 1026.85 1026.46 1026.08 1025.73 1025.42 1025.14 1024.87
1016.33 1017.44 1018.69 1019.99 1021.21 1022.27 1023.11 1023.74 1024.19 1024.54 1024.90 1025.36 1025.96 1026.72 1027.61 1028.56 1029.48 1030.28 1030.89 1031.30 1031.52 1031.57 1031.52 1031.44 1031.36 1031.31 1031.29 1031.27 1031.21 1031.10 1030.92 1030.66 1030.35 1030.00 1029.64 1029.29 1028.96 1028.64 1028.32 1027.99 1027.63 1027.26 1026.87 1026.49 1026.14 1025.81 1025.52 1025.25 1024.99
1016.95 1018.06 1019.26 1020.43 1021.50 1022.38 1023.06 1023.56 1023.95 1024.30 1024.71 1025.23 1025.90 1026.71 1027.61 1028.52 1029.37 1030.08 1030.62 1030.97 1031.17 1031.26 1031.30 1031.32 1031.36 1031.42 1031.48 1031.52 1031.50 1031.39 1031.19 1030.92 1030.59 1030.23 1029.87 1029.52 1029.19 1028.86 1028.53 1028.19 1027.83 1027.45 1027.06 1026.69 1026.34 1026.02 1025.72 1025.44 1025.16
1017.61 1018.71 1019.83 1020.87 1021.76 1022.47 1023.00 1023.40 1023.72 1024.07 1024.52 1025.09 1025.80 1026.63 1027.51 1028.37 1029.13 1029.76 1030.22 1030.54 1030.75 1030.90 1031.03 1031.17 1031.33 1031.50 1031.65 1031.74 1031.74 1031.64 1031.44 1031.16 1030.84 1030.49 1030.15 1029.83 1029.52 1029.22 1028.90 1028.56 1028.20 1027.82 1027.42 1027.04 1026.68 1026.33 1026.01 1025.69 1025.37
1018.35 1019.41 1020.43 1021.32 1022.05 1022.59 1022.99 1023.28 1023.56 1023.91 1024.37 1024.98 1025.71 1026.53 1027.36 1028.15 1028.83 1029.38 1029.79 1030.09 1030.33 1030.55 1030.78 1031.04 1031.31 1031.58 1031.79 1031.92 1031.93 1031.84 1031.64 1031.38 1031.07 1030.77 1030.48 1030.21 1029.95 1029.68 1029.39 1029.07 1028.70 1028.31 1027.90 1027.49 1027.10 1026.72 1026.36 1025.99 1025.62
1019.15 1020.16 1021.07 1021.82 1022.38 1022.77 1023.04 1023.25 1023.49 1023.82 1024.29 1024.90 1025.63 1026.42 1027.20 1027.92 1028.52 1029.01 1029.39 1029.69 1029.98 1030.27 1030.60 1030.96 1031.32 1031.65 1031.90 1032.04 1032.06 1031.96 1031.77 1031.53 1031.27 1031.02 1030.80 1030.60 1030.41 1030.19 1029.93 1029.62 1029.25 1028.84 1028.40 1027.97 1027.54 1027.13 1026.72 1026.31 1025.88
1019.98 1020.92 1021.72 1022.32 1022.74 1023.00 1023.15 1023.29 1023.48 1023.80 1024.26 1024.86 1025.56 1026.30 1027.02 1027.67 1028.22 1028.66 1029.04 1029.37 1029.71 1030.09 1030.50 1030.94 1031.36 1031.72 1031.98 1032.11 1032.11 1032.00 1031.81 1031.59 1031.38 1031.20 1031.06 1030.94 1030.81 1030.64 1030.42 1030.11 1029.74 1029.31 1028.85 1028.39 1027.93 1027.49 1027.05 1026.61 1026.15
1020.76 1021.63 1022.32 1022.79 1023.08 1023.22 1023.29 1023.36 1023.52 1023.81 1024.25 1024.82 1025.48 1026.16 1026.82 1027.40 1027.91 1028.33 1028.72 1029.10 1029.52 1029.97 1030.46 1030.96 1031.41 1031.77 1032.01 1032.11 1032.07 1031.93 1031.74 1031.54 1031.38 1031.27 1031.20 1031.16 1031.09 1030.98 1030.77 1030.47 1030.09 1029.65 1029.17 1028.68 1028.21 1027.76 1027.31 1026.87 1026.39
1021.43 1022.22 1022.79 1023.16 1023.34 1023.40 1023.40 1023.43 1023.56 1023.82 1024.23 1024.76 1025.35 1025.97 1026.55 1027.08 1027.55 1027.98 1028.40 1028.84 1029.32 1029.86 1030.41 1030.95 1031.42 1031.77 1031.97 1032.02 1031.93 1031.76 1031.56 1031.39 1031.27 1031.21 1031.21 1031.23 1031.22 1031.14 1030.96 1030.67 1030.28 1029.83 1029.34 1028.85 1028.38 1027.93 1027.50 1027.06 1026.59
1021.91 1022.60 1023.08 1023.36 1023.46 1023.46 1023.43 1023.44 1023.55 1023.79 1024.16 1024.62 1025.14 1025.68 1026.19 1026.66 1027.11 1027.54 1028.00 1028.51 1029.07 1029.68 1030.30 1030.87 1031.35 1031.68 1031.84 1031.84 1031.72 1031.52 1031.31 1031.14 1031.05 1031.04 1031.10 1031.16 1031.19 1031.15 1030.98 1030.70 1030.32 1029.87 1029.38 1028.90 1028.44 1028.01 1027.59 1027.18 1026.73
1022.17 1022.77 1023.16 1023.36 1023.42 1023.40 1023.36 1023.38 1023.48 1023.69 1024.01 1024.40 1024.83 1025.28 1025.71 1026.12 1026.54 1026.99 1027.48 1028.06 1028.70 1029.38 1030.06 1030.67 1031.16 1031.48 1031.63 1031.60 1031.45 1031.24 1031.02 1030.87 1030.80 1030.82 1030.90 1031.00 1031.06 1031.03 1030.89 1030.62 1030.25 1029.81 1029.34 1028.87 1028.42 1028.01 1027.62 1027.22 1026.79
1022.23 1022.72 1023.03 1023.19 1023.23 1023.21 1023.20 1023.23 1023.33 1023.51 1023.77 1024.08 1024.42 1024.76 1025.11 1025.46 1025.85 1026.31 1026.84 1027.48 1028.19 1028.94 1029.68 1030.35 1030.87 1031.20 1031.35 1031.32 1031.17 1030.96 1030.76 1030.61 1030.55 1030.59 1030.68 1030.80 1030.87 1030.86 1030.73 1030.48 1030.13 1029.71 1029.25 1028.80 1028.36 1027.96 1027.57 1027.18 1026.76
1022.12 1022.51 1022.76 1022.88 1022.93 1022.94 1022.95 1023.00 1023.11 1023.26 1023.46 1023.68 1023.91 1024.16 1024.41 1024.71 1025.07 1025.53 1026.11 1026.79 1027.57 1028.40 1029.20 1029.92 1030.48 1030.86 1031.04 1031.05 1030.93 1030.74 1030.55 1030.42 1030.37 1030.40 1030.50 1030.60 1030.68 1030.67 1030.56 1030.33 1030.00 1029.60 1029.16 1028.71 1028.28 1027.87 1027.47 1027.06 1026.62
1021.93 1022.22 1022.41 1022.52 1022.58 1022.63 1022.67 1022.74 1022.83 1022.94 1023.06 1023.19 1023.32 1023.47 1023.65 1023.90 1024.24 1024.71 1025.32 1026.07 1026.91 1027.79 1028.66 1029.44 1030.06 1030.50 1030.75 1030.81 1030.74 1030.60 1030.45 1030.33 1030.28 1030.29 1030.36 1030.45 1030.50 1030.49 1030.39 1030.17 1029.86 1029.48 1029.05 1028.61 1028.17 1027.73 1027.30 1026.86 1026.39
1021.73 1021.94 1022.08 1022.19 1022.27 1022.33 1022.39 1022.45 1022.51 1022.56 1022.59 1022.62 1022.66 1022.72 1022.85 1023.07 1023.42 1023.91 1024.57 1025.36 1026.26 1027.20 1028.12 1028.96 1029.65 1030.16 1030.48 1030.62 1030.63 1030.55 1030.43 1030.33 1030.27 1030.26 1030.29 1030.33 1030.35 1030.31 1030.20 1029.99 1029.70 1029.34 1028.92 1028.47 1028.01 1027.55 1027.07 1026.59 1026.07
1021.59 1021.73 1021.85 1021.95 1022.03 1022.10 1022.14 1022.16 1022.15 1022.10 1022.04 1021.97 1021.92 1021.93 1022.03 1022.25 1022.63 1023.18 1023.90 1024.75 1025.69 1026.68 1027.65 1028.53 1029.28 1029.86 1030.25 1030.48 1030.56 1030.55 1030.48 1030.39 1030.32 1030.27 1030.24 1030.23 1030.19 1030.12 1029.98 1029.77 1029.49 1029.13 1028.73 1028.28 1027.80 1027.30 1026.78 1026.26 1025.71
1021.53 1021.65 1021.75 1021.84 1021.91 1021.95 1021.94 1021.87 1021.75 1021.58 1021.39 1021.21 1021.10 1021.08 1021.19 1021.46 1021.91 1022.55 1023.34 1024.25 1025.25 1026.27 1027.27 1028.18 1028.96 1029.59 1030.05 1030.35 1030.51 1030.56 1030.53 1030.46 1030.36 1030.27 1030.18 1030.09 1029.99 1029.87 1029.70 1029.47 1029.19 1028.85 1028.45 1028.00 1027.51 1026.99 1026.45 1025.89 1025.31
1021.58 1021.69 1021.80 1021.88 1021.92 1021.89 1021.78 1021.57 1021.29 1020.97 1020.64 1020.37 1020.20 1020.17 1020.33 1020.70 1021.26 1022.00 1022.89 1023.88 1024.92 1025.97 1026.97 1027.88 1028.67 1029.32 1029.82 1030.18 1030.40 1030.51 1030.52 1030.46 1030.36 1030.22 1030.07 1029.91 1029.74 1029.55 1029.34 1029.10 1028.81 1028.47 1028.09 1027.65 1027.16 1026.64 1026.09 1025.51 1024.92
1021.72 1021.86 1021.98 1022.05 1022.03 1021.90 1021.65 1021.27 1020.80 1020.29 1019.81 1019.44 1019.23 1019.23 1019.47 1019.95 1020.65 1021.53 1022.53 1023.61 1024.69 1025.74 1026.72 1027.61 1028.37 1029.02 1029.54 1029.93 1030.19 1030.35 1030.40 1030.36 1030.25 1030.08 1029.88 1029.66 1029.42 1029.18 1028.93 1028.66 1028.37 1028.05 1027.68 1027.26 1026.79 1026.28 1025.73 1025.16 1024.58
1021.91 1022.10 1022.24 1022.29 1022.20 1021.96 1021.53 1020.96 1020.28 1019.58 1018.94 1018.47 1018.23 1018.27 1018.60 1019.22 1020.08 1021.11 1022.23 1023.38 1024.50 1025.55 1026.49 1027.33 1028.04 1028.65 1029.16 1029.56 1029.86 1030.05 1030.14 1030.13 1030.02 1029.85 1029.62 1029.35 1029.07 1028.78 1028.50 1028.22 1027.92 1027.61 1027.25 1026.86 1026.42 1025.93 1025.40 1024.85 1024.28
1022.12 1022.36 1022.52 1022.55 1022.40 1022.02 1021.42 1020.64 1019.75 1018.86 1018.08 1017.52 1017.25 1017.34 1017.77 1018.53 1019.54 1020.71 1021.94 1023.17 1024.31 1025.34 1026.24 1027.01 1027.66 1028.21 1028.68 1029.07 1029.39 1029.61 1029.74 1029.76 1029.68 1029.52 1029.29 1029.01 1028.70 1028.40 1028.09 1027.80 1027.50 1027.19 1026.86 1026.49 1026.07 1025.61 1025.11 1024.57 1024.02
1022.31 1022.60 1022.78 1022.78 1022.55 1022.05 1021.29 1020.32 1019.25 1018.19 1017.28 1016.64 1016.36 1016.49 1017.01 1017.89 1019.02 1020.32 1021.65 1022.93 1024.09 1025.10 1025.94 1026.64 1027.22 1027.71 1028.13 1028.50 1028.82 1029.06 1029.23 1029.29 1029.26 1029.13 1028.92 1028.65 1028.35 1028.04 1027.73 1027.43 1027.14 1026.84 1026.52 1026.16 1025.76 1025.32 1024.83 1024.31 1023.76
1022.44 1022.76 1022.94 1022.91 1022.61 1022.00 1021.11 1020.00 1018.78 1017.59 1016.59 1015.90 1015.61 1015.76 1016.35 1017.31 1018.55 1019.93 1021.33 1022.65 1023.82 1024.80 1025.60 1026.23 1026.74 1027.17 1027.54 1027.89 1028.20 1028.46 1028.66 1028.77 1028.78 1028.70 1028.53 1028.30 1028.02 1027.72 1027.42 1027.13 1026.83 1026.53 1026.21 1025.85 1025.46 1025.02 1024.54 1024.02 1023.47
1022.47 1022.79 1022.95 1022.89 1022.52 1021.84 1020.85 1019.65 1018.34 1017.08 1016.02 1015.30 1015.00 1015.18 1015.81 1016.82 1018.10 1019.53 1020.97 1022.30 1023.47 1024.44 1025.20 1025.79 1026.25 1026.63 1026.97 1027.29 1027.59 1027.86 1028.08 1028.23 1028.29 1028.25 1028.13 1027.94 1027.70 1027.43 1027.14 1026.85 1026.55 1026.23 1025.89 1025.52 1025.11 1024.67 1024.18 1023.66 1023.10
1022.37 1022.64 1022.76 1022.64 1022.22 1021.48 1020.46 1019.22 1017.88 1016.61 1015.55 1014.83 1014.54 1014.73 1015.36 1016.38 1017.67 1019.10 1020.54 1021.88 1023.04 1024.00 1024.75 1025.33 1025.77 1026.14 1026.46 1026.76 1027.05 1027.32 1027.55 1027.71 1027.80 1027.81 1027.73 1027.58 1027.37 1027.12 1026.84 1026.54 1026.22 1025.88 1025.51 1025.11 1024.67 1024.20 1023.69 1023.15 1022.59
1022.13 1022.31 1022.35 1022.15 1021.68 1020.92 1019.89 1018.67 1017.37 1016.14 1015.12 1014.43 1014.17 1014.35 1014.97 1015.96 1017.22 1018.61 1020.02 1021.34 1022.51 1023.47 1024.25 1024.85 1025.31 1025.69 1026.02 1026.31 1026.60 1026.86 1027.08 1027.25 1027.35 1027.37 1027.31 1027.18 1026.99 1026.75 1026.47 1026.15 1025.80 1025.42 1025.00 1024.56 1024.08 1023.57 1023.04 1022.50 1021.93
Thickness
5749 5752 5755 5745 5723 5707 5686 5687 5688 5680 5676 5673 5675 5672 5658 5648 5646 5628 5619 5621 5620 5618 5616 5615 5616 5617 5618 5618 5619 5619 5619 5618 5618 5618 5619 5619 5619 5620 5621 5621 5621 5622 5623 5624 5625 5627 5629 5631 5634
5753 5757 5750 5735 5714 5693 5680 5688 5684 5680 5674 5674 5674 5672 5659 5644 5640 5630 5622 5620 5619 5616 5613 5611 5613 5613 5614 5614 5614 5613 5613 5612 5612 5612 5611 5611 5611 5612 5612 5612 5612 5612 5612 5614 5614 5615 5617 5619 5622
5755 5758 5742 5728 5707 5695 5685 5689 5677 5675 5677 5675 5667 5664 5656 5643 5639 5630 5622 5620 5618 5614 5611 5609 5609 5609 5609 5608 5607 5607 5606 5605 5604 5604 5603 5603 5603 5603 5602 5602 5601 5601 5601 5601 5602 5603 5605 5606 5608
5755 5750 5743 5720 5696 5699 5697 5688 5680 5674 5675 5675 5666 5653 5647 5643 5638 5628 5622 5619 5616 5612 5609 5606 5605 5604 5603 5602 5601 5600 5598 5597 5596 5595 5594 5594 5593 5593 5592 5591 5589 5589 5588 5589 5589 5589 5591 5592 5594
5754 5743 5726 5702 5694 5698 5697 5691 5686 5678 5673 5672 5669 5652 5638 5634 5631 5625 5620 5617 5613 5609 5606 5603 5602 5600 5598 5596 5594 5592 5590 5588 5587 5586 5585 5584 5583 5582 5580 5578 5576 5575 5574 5574 5574 5574 5575 5576 5578
5745 5741 5719 5698 5690 5693 5693 5692 5691 5683 5674 5671 5668 5652 5636 5633 5628 5623 5619 5615 5611 5607 5604 5601 5598 5595 5592 5589 5586 5583 5581 5579 5578 5577 5575 5573 5571 5569 5567 5565 5562 5560 5559 5557 5557 5556 5556 5557 5559
5741 5732 5719 5703 5688 5688 5690 5693 5689 5681 5672 5668 5670 5652 5635 5631 5626 5621 5617 5613 5608 5604 5601 5597 5593 5589 5586 5583 5579 5575 5573 5570 5568 5566 5563 5560 5558 5555 5552 5549 5546 5544 5542 5539 5537 5536 5536 5536 5537
5745 5735 5719 5706 5693 5690 5690 5689 5690 5683 5674 5672 5670 5656 5639 5633 5626 5620 5615 5611 5606 5601 5596 5592 5587 5582 5578 5574 5571 5568 5565 5561 5558 5554 5551 5547 5543 5539 5536 5532 5528 5525 5521 5517 5514 5511 5509 5508 5509
5748 5728 5711 5709 5703 5691 5688 5681 5680 5677 5668 5663 5662 5655 5654 5637 5626 5618 5613 5608 5604 5599 5593 5586 5580 5575 5571 5567 5563 5559 5555 5550 5546 5542 5538 5534 5529 5524 5520 5515 5510 5505 5500 5494 5488 5483 5478 5475 5473
5735 5716 5703 5705 5709 5695 5686 5681 5672 5667 5661 5655 5652 5645 5640 5632 5624 5617 5613 5609 5603 5596 5588 5581 5574 5569 5564 5559 5555 5551 5546 5541 5536 5531 5526 5521 5515 5509 5504 5497 5491 5484 5476 5468 5460 5451 5444 5438 5436
5720 5702 5700 5699 5703 5696 5685 5681 5673 5667 5661 5660 5652 5642 5634 5627 5622 5617 5614 5609 5600 5591 5582 5575 5569 5563 5557 5552 5547 5543 5538 5533 5527 5521 5514 5508 5501 5494 5487 5479 5471 5462 5452 5441 5429 5418 5408 5401 5396
5707 5700 5699 5691 5694 5690 5683 5678 5671 5667 5668 5670 5664 5649 5636 5627 5622 5618 5613 5606 5596 5586 5577 5570 5564 5557 5551 5545 5539 5535 5529 5523 5517 5510 5503 5496 5488 5480 5470 5460 5448 5436 5422 5408 5394 5382 5372 5366 5361
5698 5690 5689 5684 5686 5685 5680 5673 5670 5670 5669 5664 5659 5646 5636 5628 5623 5618 5613 5604 5593 5583 5573 5565 5558 5552 5545 5539 5533 5527 5521 5514 5507 5500 5492 5483 5474 5463 5452 5438 5423 5406 5389 5372 5358 5347 5339 5334 5330
5696 5689 5684 5681 5679 5677 5672 5671 5667 5669 5668 5659 5652 5641 5635 5629 5624 5617 5610 5600 5591 5581 5571 5561 5553 5547 5540 5533 5527 5520 5513 5505 5497 5489 5479 5469 5457 5444 5429 5413 5394 5376 5357 5341 5328 5319 5312 5306 5302
5696 5685 5679 5679 5677 5674 5668 5665 5668 5673 5664 5655 5648 5640 5635 5629 5624 5618 5608 5598 5589 5579 5568 5558 5549 5541 5534 5527 5520 5512 5504 5496 5487 5477 5466 5453 5439 5423 5405 5385 5365 5347 5330 5317 5306 5296 5288 5281 5274
5696 5689 5677 5678 5678 5670 5661 5665 5682 5673 5660 5652 5646 5640 5634 5630 5625 5617 5609 5598 5588 5577 5565 5554 5545 5536 5529 5521 5513 5505 5496 5486 5475 5464 5450 5436 5419 5401 5380 5360 5340 5323 5308 5295 5285 5275 5265 5255 5247
5690 5690 5692 5674 5679 5671 5660 5665 5674 5668 5660 5652 5646 5641 5635 5630 5625 5618 5609 5599 5587 5575 5563 5551 5540 5531 5522 5514 5505 5496 5486 5475 5463 5450 5435 5419 5400 5379 5358 5337 5319 5303 5290 5277 5265 5255 5242 5232 5223
5694 5699 5700 5686 5676 5673 5663 5666 5675 5666 5659 5653 5649 5644 5640 5634 5628 5620 5611 5600 5587 5574 5561 5548 5536 5526 5516 5506 5496 5486 5475 5463 5450 5436 5420 5402 5382 5361 5339 5319 5302 5287 5274 5261 5248 5236 5225 5211 5200
5699 5695 5693 5690 5681 5672 5668 5672 5679 5671 5660 5654 5652 5648 5644 5639 5634 5625 5613 5600 5586 5572 5558 5545 5532 5521 5509 5498 5487 5475 5463 5451 5438 5423 5406 5387 5366 5344 5322 5303 5288 5273 5259 5245 5232 5219 5207 5195 5183
5696 5691 5693 5686 5678 5674 5672 5674 5685 5683 5667 5661 5657 5654 5650 5644 5637 5628 5615 5600 5586 5571 5557 5542 5528 5515 5503 5491 5478 5466 5453 5440 5427 5411 5393 5372 5350 5328 5308 5291 5275 5260 5246 5233 5218 5203 5191 5182 5169
5696 5692 5685 5679 5684 5681 5669 5676 5680 5681 5679 5669 5663 5659 5656 5650 5641 5630 5616 5600 5585 5570 5555 5540 5523 5508 5495 5483 5470 5457 5444 5430 5415 5398 5378 5358 5336 5315 5296 5280 5265 5250 5235 5221 5207 5191 5177 5169 5162
5688 5685 5682 5677 5669 5675 5675 5662 5675 5675 5669 5668 5663 5659 5656 5652 5645 5634 5619 5601 5584 5568 5551 5535 5518 5502 5488 5475 5461 5447 5432 5417 5402 5385 5367 5347 5325 5304 5286 5270 5255 5240 5226 5211 5196 5182 5167 5157 5152
5686 5684 5678 5675 5672 5670 5676 5663 5677 5682 5672 5672 5668 5664 5659 5653 5645 5634 5620 5602 5584 5565 5546 5529 5512 5496 5482 5468 5454 5438 5423 5408 5392 5376 5357 5336 5315 5295 5278 5262 5247 5233 5218 5203 5188 5174 5161 5150 5143
5684 5680 5676 5672 5667 5663 5680 5669 5676 5680 5687 5684 5677 5672 5665 5656 5646 5633 5618 5599 5579 5559 5541 5523 5506 5491 5476 5461 5446 5431 5416 5400 5383 5365 5346 5327 5307 5288 5271 5256 5241 5226 5211 5197 5182 5168 5156 5146 5139
5675 5669 5665 5661 5652 5671 5681 5670 5677 5697 5697 5692 5682 5672 5665 5655 5643 5628 5612 5593 5573 5553 5536 5519 5502 5487 5472 5456 5440 5425 5409 5393 5375 5357 5338 5319 5300 5282 5266 5251 5236 5222 5207 5192 5177 5163 5152 5142 5136
5682 5674 5661 5656 5664 5671 5671 5666 5690 5704 5699 5693 5684 5674 5664 5652 5640 5626 5609 5590 5570 5551 5533 5515 5499 5483 5468 5451 5435 5420 5404 5387 5369 5351 5332 5313 5294 5278 5262 5248 5233 5219 5204 5189 5173 5160 5148 5139 5132
5676 5675 5672 5661 5668 5658 5667 5688 5701 5697 5690 5683 5675 5667 5658 5649 5637 5622 5605 5587 5568 5549 5531 5514 5497 5481 5464 5447 5430 5414 5398 5381 5364 5346 5327 5308 5291 5275 5259 5245 5231 5217 5202 5186 5171 5157 5146 5137 5130
5666 5666 5661 5654 5646 5642 5665 5679 5681 5681 5682 5680 5672 5666 5660 5650 5636 5619 5603 5585 5567 5549 5530 5512 5495 5478 5462 5444 5427 5411 5393 5377 5360 5342 5324 5306 5288 5272 5257 5243 5229 5216 5201 5186 5171 5157 5146 5136 5130
5658 5658 5657 5657 5656 5638 5640 5665 5705 5696 5694 5688 5680 5673 5664 5651 5635 5618 5601 5584 5565 5546 5527 5509 5492 5475 5458 5441 5424 5407 5390 5374 5357 5340 5322 5304 5287 5270 5256 5242 5229 5215 5201 5186 5172 5159 5148 5139 5133
5670 5668 5660 5646 5649 5646 5634 5659 5707 5706 5699 5691 5683 5676 5667 5653 5635 5617 5599 5580 5562 5543 5525 5507 5490 5474 5457 5440 5422 5404 5388 5371 5354 5338 5320 5303 5285 5269 5255 5242 5229 5215 5202 5188 5175 5163 5153 5144 5138